Weather History for Trieste, Italy

Change the Weather History Date:

Saturday, September 22, 2012

  Actual Average Record
Temperature  
Mean Temperature 64 °F -  
Max Temperature 72 °F 67 °F 78 °F (2011)
Min Temperature 56 °F 57 °F 55 °F (2008)
Degree Days  
Heating Degree Days 1    
Growing Degree Days 14 (Base 50)    
Moisture  
Dew Point 51 °F    
Average Humidity 69    
Maximum Humidity 88    
Minimum Humidity 54    
Precipitation  
Precipitation 0.00 in 0.12 in - ()
Sea Level Pressure  
Sea Level Pressure 30.04 in    
Wind  
Wind Speed 7 mph ()    
Max Wind Speed 10 mph    
Max Gust Speed -    
Visibility 10.1 miles    
Events      
Averages and records for this station are not official NWS values.
T = Trace of Precipitation, MM = Missing Value Source: Averaged Metar Reports

Daily Weather History Graph

Daily Weather History Graph

Search for Another Location

Airport:

Trip Planner

Search our weather history database for the weather conditions in past years. The results will help you decide how hot, cold, wet, or windy it might be!

Date:

Astronomy

Sep. 22, 2012 Rise Set
Actual Time 6:52 AM CEST 7:02 PM CEST
Civil Twilight 6:22 AM CEST 7:31 PM CEST
Nautical Twilight 5:47 AM CEST 8:06 PM CEST
Astronomical Twilight 5:11 AM CEST 8:42 PM CEST
Moon 2:13 PM CEST (9/22) 11:30 PM CEST (9/22)
Length of Visible Light 13h 09m
Length of Day
12h 09m
Waxing Crescent, 45% of the Moon is Illuminated
Sep 22
Waxing Crescent
Sep 22
First Quarter
Sep 30
Full
Oct 8
Last Quarter
Oct 15
New

Hourly Weather History & Observations

Time (CEST) Temp. Dew Point Humidity Pressure Visibility Wind Dir Wind Speed Gust Speed Precip Events Conditions
12:55 AM 57.2 °F 48.2 °F 72% 30.09 in - ENE 6.9 mph - N/A   Clear
1:55 AM 55.4 °F 48.2 °F 77% 30.06 in - ENE 9.2 mph - N/A   Clear
2:00 AM 56 °F 48 °F 66% 30.09 in 12 mi ENE 9.2 mph - -  
2:55 AM 55.4 °F 48.2 °F 77% 30.06 in - ENE 6.9 mph - N/A   Clear
3:55 AM 55.4 °F 50.0 °F 82% 30.04 in - NE 8.1 mph - N/A   Clear
4:55 AM 55.4 °F 50.0 °F 82% 30.04 in - NE 10.4 mph - N/A   Clear
8:00 AM 61 °F 49 °F 56% 30.04 in 12 mi East 4.6 mph - -   Scattered Clouds
8:55 AM 62.6 °F 50.0 °F 63% 30.04 in 6.2 mi ESE 4.6 mph - N/A   Partly Cloudy
9:55 AM 66.2 °F 51.8 °F 60% 30.04 in 6.2 mi SSE 10.4 mph - N/A   Partly Cloudy
10:55 AM 59.0 °F 42.8 °F 55% 30.04 in - NW 5.8 mph - N/A   Clear
11:55 AM 59.0 °F 46.4 °F 63% 30.04 in - NNW 6.9 mph - N/A   Clear
12:55 PM 60.8 °F 46.4 °F 59% 30.04 in - SSE 6.9 mph - N/A   Clear
1:55 PM 60.8 °F 50.0 °F 68% 30.01 in - NW 10.4 mph - N/A   Clear
2:00 PM 62 °F 50 °F 54% 30.03 in 12 mi NW 10.4 mph - -   Partly Cloudy
2:55 PM 62.6 °F 50.0 °F 63% 30.01 in - NW 8.1 mph - N/A   Clear
3:55 PM 62.6 °F 50.0 °F 63% 30.01 in - NW 8.1 mph - N/A   Clear
4:55 PM 62.6 °F 50.0 °F 63% 30.01 in - WNW 6.9 mph - N/A   Clear
5:55 PM 60.8 °F 50.0 °F 68% 30.01 in - NW 3.5 mph - N/A   Clear
6:55 PM 59.0 °F 50.0 °F 72% 30.01 in - West 4.6 mph - N/A   Clear
7:55 PM 64.4 °F 59.0 °F 83% 30.04 in - ENE 9.2 mph - N/A   Clear
8:00 PM 65 °F 59 °F 74% 30.04 in 12 mi ENE 9.2 mph - -   Scattered Clouds
8:55 PM 64.4 °F 59.0 °F 83% 30.04 in - NE 8.1 mph - N/A   Clear
9:55 PM 62.6 °F 59.0 °F 88% 30.04 in - East 8.1 mph - N/A   Clear
10:55 PM 64.4 °F 55.4 °F 73% 30.04 in - East 5.8 mph - N/A   Clear
11:55 PM 66.2 °F 53.6 °F 64% 30.04 in - East 6.9 mph - N/A   Clear